Time,TemperatureF,DewpointF,PressureIn,WindDirection,WindDirectionDegrees,WindSpeedMPH,WindSpeedGustMPH,Humidity,HourlyPrecipIn,Conditions,Clouds,dailyrainin,SoftwareType,DateUTC
2013-02-12 00:13:00,34.4,34.0,29.54,NNW,346,1.0,4.0,97,0.00,,,0.00,weatherlink.com 1.10,2013-02-12 05:13:00,
2013-02-12 00:28:00,34.1,33.0,29.55,West,270,0.0,1.0,97,0.00,,,0.00,weatherlink.com 1.10,2013-02-12 05:28:00,
2013-02-12 00:43:00,33.9,33.0,29.55,SSE,163,0.0,2.0,97,0.00,,,0.00,weatherlink.com 1.10,2013-02-12 05:43:00,
2013-02-12 00:58:00,33.7,33.0,29.56,NW,304,0.0,1.0,97,0.00,,,0.00,weatherlink.com 1.10,2013-02-12 05:58:00,
2013-02-12 01:13:00,33.5,33.0,29.55,West,276,0.0,2.0,97,0.00,,,0.00,weatherlink.com 1.10,2013-02-12 06:13:00,
2013-02-12 01:28:00,33.3,33.0,29.54,West,259,0.0,1.0,97,0.00,,,0.00,weatherlink.com 1.10,2013-02-12 06:28:00,
2013-02-12 01:43:00,33.0,32.0,29.54,North,8,0.0,1.0,97,0.00,,,0.00,weatherlink.com 1.10,2013-02-12 06:43:00,
2013-02-12 01:58:00,32.8,32.0,29.54,SW,221,0.0,0.0,97,0.00,,,0.00,weatherlink.com 1.10,2013-02-12 06:58:00,
2013-02-12 02:13:00,32.7,32.0,29.53,West,263,0.0,1.0,97,0.00,,,0.00,weatherlink.com 1.10,2013-02-12 07:13:00,
2013-02-12 02:28:00,32.5,32.0,29.52,West,263,0.0,0.0,97,0.00,,,0.00,weatherlink.com 1.10,2013-02-12 07:28:00,
2013-02-12 02:43:00,32.3,32.0,29.50,NNE,15,1.0,1.0,97,0.00,,,0.00,weatherlink.com 1.10,2013-02-12 07:43:00,
2013-02-12 02:58:00,32.2,32.0,29.48,ENE,61,4.0,4.0,97,0.00,,,0.00,weatherlink.com 1.10,2013-02-12 07:58:00,
2013-02-12 03:13:00,32.3,32.0,29.52,ENE,60,2.0,5.0,98,0.00,,,0.00,weatherlink.com 1.10,2013-02-12 08:13:00,
2013-02-12 03:28:00,32.3,32.0,29.52,WSW,246,2.0,6.0,98,0.01,,,0.01,weatherlink.com 1.10,2013-02-12 08:28:00,
2013-02-12 03:43:00,32.2,32.0,29.52,NW,315,0.0,6.0,98,0.01,,,0.01,weatherlink.com 1.10,2013-02-12 08:43:00,
2013-02-12 03:58:00,32.2,32.0,29.53,SW,235,3.0,7.0,98,0.01,,,0.01,weatherlink.com 1.10,2013-02-12 08:58:00,
2013-02-12 04:13:00,32.2,32.0,29.52,WSW,243,0.0,3.0,98,0.01,,,0.01,weatherlink.com 1.10,2013-02-12 09:13:00,
2013-02-12 04:28:00,32.2,32.0,29.51,NNE,27,1.0,3.0,98,0.00,,,0.01,weatherlink.com 1.10,2013-02-12 09:28:00,
2013-02-12 04:43:00,32.2,32.0,29.51,NNE,27,0.0,0.0,98,0.00,,,0.01,weatherlink.com 1.10,2013-02-12 09:43:00,
2013-02-12 04:58:00,32.2,32.0,29.51,NNE,27,0.0,0.0,98,0.00,,,0.01,weatherlink.com 1.10,2013-02-12 09:58:00,
2013-02-12 05:13:00,32.3,32.0,29.51,NNE,27,0.0,0.0,98,0.00,,,0.01,weatherlink.com 1.10,2013-02-12 10:13:00,
2013-02-12 05:28:00,32.3,32.0,29.52,NW,326,0.0,1.0,98,0.00,,,0.01,weatherlink.com 1.10,2013-02-12 10:28:00,
2013-02-12 05:43:00,32.3,32.0,29.52,NW,326,0.0,1.0,98,0.00,,,0.01,weatherlink.com 1.10,2013-02-12 10:43:00,
2013-02-12 05:58:00,32.3,32.0,29.52,SE,141,0.0,1.0,98,0.00,,,0.01,weatherlink.com 1.10,2013-02-12 10:58:00,
2013-02-12 06:13:00,32.3,32.0,29.52,East,94,0.0,1.0,98,0.00,,,0.01,weatherlink.com 1.10,2013-02-12 11:13:00,
2013-02-12 06:28:00,32.3,32.0,29.53,SW,218,0.0,0.0,98,0.00,,,0.01,weatherlink.com 1.10,2013-02-12 11:28:00,
2013-02-12 06:43:00,32.3,32.0,29.53,WNW,294,0.0,1.0,98,0.00,,,0.01,weatherlink.com 1.10,2013-02-12 11:43:00,
2013-02-12 06:58:00,32.2,32.0,29.54,SSE,155,0.0,1.0,98,0.00,,,0.01,weatherlink.com 1.10,2013-02-12 11:58:00,
2013-02-12 07:13:00,32.2,32.0,29.54,SE,132,0.0,1.0,98,0.00,,,0.01,weatherlink.com 1.10,2013-02-12 12:13:00,
2013-02-12 07:28:00,32.1,31.0,29.55,SW,219,3.0,3.0,97,0.00,,,0.01,weatherlink.com 1.10,2013-02-12 12:28:00,
2013-02-12 07:43:00,32.6,32.0,29.55,NW,324,1.0,1.0,98,0.00,,,0.01,weatherlink.com 1.10,2013-02-12 12:43:00,
2013-02-12 07:58:00,32.8,32.0,29.55,SW,217,2.0,2.0,97,0.00,,,0.01,weatherlink.com 1.10,2013-02-12 12:58:00,
2013-02-12 08:13:00,34.4,34.0,29.55,NNW,327,1.0,1.0,97,0.00,,,0.01,weatherlink.com 1.10,2013-02-12 13:13:00,
2013-02-12 08:29:00,35.6,34.0,29.55,SSW,203,3.0,4.0,95,0.00,,,0.01,weatherlink.com 1.10,2013-02-12 13:29:00,
2013-02-12 08:44:00,35.2,34.0,29.55,SSW,211,0.0,4.0,94,0.00,,,0.01,weatherlink.com 1.10,2013-02-12 13:44:00,
2013-02-12 08:59:00,35.2,34.0,29.55,SW,214,3.0,5.0,94,0.00,,,0.01,weatherlink.com 1.10,2013-02-12 13:59:00,
2013-02-12 09:14:00,35.8,35.0,29.55,SE,142,0.0,1.0,95,0.00,,,0.01,weatherlink.com 1.10,2013-02-12 14:14:00,
2013-02-12 09:29:00,35.5,34.0,29.56,SSW,204,0.0,5.0,95,0.00,,,0.01,weatherlink.com 1.10,2013-02-12 14:29:00,
2013-02-12 09:44:00,36.1,35.0,29.56,SSW,212,2.0,2.0,95,0.00,,,0.01,weatherlink.com 1.10,2013-02-12 14:44:00,
2013-02-12 09:59:00,37.0,36.0,29.56,SSW,195,0.0,3.0,94,0.00,,,0.01,weatherlink.com 1.10,2013-02-12 14:59:00,
2013-02-12 10:14:00,38.4,36.0,29.56,South,181,0.0,3.0,92,0.00,,,0.01,weatherlink.com 1.10,2013-02-12 15:14:00,
2013-02-12 10:29:00,38.9,37.0,29.56,North,6,1.0,5.0,91,0.00,,,0.01,weatherlink.com 1.10,2013-02-12 15:29:00,
2013-02-12 10:44:00,38.7,36.0,29.56,ENE,76,0.0,3.0,89,0.00,,,0.01,weatherlink.com 1.10,2013-02-12 15:44:00,
2013-02-12 10:59:00,38.7,36.0,29.56,ESE,110,3.0,4.0,88,0.00,,,0.01,weatherlink.com 1.10,2013-02-12 15:59:00,
2013-02-12 11:14:00,39.9,37.0,29.56,ESE,120,1.0,4.0,88,0.00,,,0.01,weatherlink.com 1.10,2013-02-12 16:14:00,
2013-02-12 11:29:00,39.8,36.0,29.56,SSW,201,0.0,6.0,86,0.00,,,0.01,weatherlink.com 1.10,2013-02-12 16:29:00,
2013-02-12 11:44:00,40.1,36.0,29.55,WSW,254,1.0,5.0,85,0.00,,,0.01,weatherlink.com 1.10,2013-02-12 16:44:00,
2013-02-12 11:59:00,41.5,36.0,29.55,WSW,255,2.0,6.0,81,0.00,,,0.01,weatherlink.com 1.10,2013-02-12 16:59:00,
2013-02-12 12:14:00,41.7,36.0,29.55,WNW,290,0.0,6.0,80,0.00,,,0.01,weatherlink.com 1.10,2013-02-12 17:14:00,
2013-02-12 12:29:00,42.1,37.0,29.55,NW,307,3.0,4.0,81,0.00,,,0.01,weatherlink.com 1.10,2013-02-12 17:29:00,
2013-02-12 12:44:00,42.4,36.0,29.56,WNW,297,1.0,8.0,77,0.00,,,0.01,weatherlink.com 1.10,2013-02-12 17:44:00,
2013-02-12 12:59:00,42.8,35.0,29.56,WNW,285,5.0,6.0,75,0.00,,,0.01,weatherlink.com 1.10,2013-02-12 17:59:00,
2013-02-12 13:14:00,43.3,35.0,29.55,WNW,283,1.0,6.0,72,0.00,,,0.01,weatherlink.com 1.10,2013-02-12 18:14:00,
2013-02-12 13:29:00,43.6,35.0,29.55,NNE,29,2.0,6.0,72,0.00,,,0.01,weatherlink.com 1.10,2013-02-12 18:29:00,
2013-02-12 13:44:00,44.9,35.0,29.55,NE,41,0.0,7.0,68,0.00,,,0.01,weatherlink.com 1.10,2013-02-12 18:44:00,
2013-02-12 13:59:00,44.8,34.0,29.55,NNW,330,1.0,11.0,65,0.00,,,0.01,weatherlink.com 1.10,2013-02-12 18:59:00,
2013-02-12 14:14:00,43.5,33.0,29.56,SSW,205,3.0,10.0,66,0.00,,,0.01,weatherlink.com 1.10,2013-02-12 19:14:00,
2013-02-12 14:29:00,43.0,33.0,29.56,SSE,155,1.0,8.0,67,0.00,,,0.01,weatherlink.com 1.10,2013-02-12 19:29:00,
2013-02-12 14:44:00,42.8,32.0,29.57,SW,225,4.0,9.0,65,0.00,,,0.01,weatherlink.com 1.10,2013-02-12 19:44:00,
2013-02-12 14:59:00,42.6,31.0,29.58,South,191,1.0,7.0,63,0.00,,,0.01,weatherlink.com 1.10,2013-02-12 19:59:00,
2013-02-12 15:14:00,42.2,30.0,29.58,SSW,207,1.0,6.0,63,0.00,,,0.01,weatherlink.com 1.10,2013-02-12 20:14:00,
2013-02-12 15:29:00,42.0,31.0,29.59,SE,145,2.0,6.0,64,0.00,,,0.01,weatherlink.com 1.10,2013-02-12 20:29:00,
2013-02-12 15:44:00,41.7,31.0,29.59,SSW,212,1.0,4.0,65,0.00,,,0.01,weatherlink.com 1.10,2013-02-12 20:44:00,
2013-02-12 15:59:00,41.6,31.0,29.59,SSW,195,3.0,5.0,65,0.00,,,0.01,weatherlink.com 1.10,2013-02-12 20:59:00,
2013-02-12 16:14:00,41.3,30.0,29.60,SSW,193,0.0,8.0,65,0.00,,,0.01,weatherlink.com 1.10,2013-02-12 21:14:00,
2013-02-12 16:29:00,41.2,31.0,29.60,SW,226,1.0,-999.0,66,-99.99,,,0.01,weatherlink.com 1.10,2013-02-12 21:29:00,
2013-02-12 16:44:00,40.8,30.0,29.60,SSW,199,0.0,5.0,66,0.00,,,0.01,weatherlink.com 1.10,2013-02-12 21:44:00,
2013-02-12 17:00:00,40.3,30.0,29.60,SSW,208,4.0,4.0,67,0.00,,,0.01,weatherlink.com 1.10,2013-02-12 22:00:00,
2013-02-12 17:14:00,40.1,30.0,29.60,SSW,211,1.0,3.0,68,0.00,,,0.01,weatherlink.com 1.10,2013-02-12 22:14:00,
2013-02-12 17:30:00,39.8,30.0,29.61,SE,137,2.0,3.0,69,0.00,,,0.01,weatherlink.com 1.10,2013-02-12 22:30:00,
2013-02-12 17:45:00,39.6,31.0,29.62,SSW,208,1.0,4.0,70,0.00,,,0.01,weatherlink.com 1.10,2013-02-12 22:45:00,
2013-02-12 18:00:00,39.7,30.0,29.63,South,186,0.0,8.0,69,0.00,,,0.01,weatherlink.com 1.10,2013-02-12 23:00:00,
2013-02-12 18:15:00,39.6,31.0,29.63,SSE,160,1.0,4.0,70,0.00,,,0.01,weatherlink.com 1.10,2013-02-12 23:15:00,
2013-02-12 18:30:00,39.6,31.0,29.64,South,186,0.0,6.0,70,0.00,,,0.01,weatherlink.com 1.10,2013-02-12 23:30:00,
2013-02-12 18:45:00,39.3,31.0,29.65,South,186,0.0,4.0,71,0.00,,,0.01,weatherlink.com 1.10,2013-02-12 23:45:00,
2013-02-12 19:00:00,39.1,31.0,29.66,South,187,0.0,3.0,72,0.00,,,0.01,weatherlink.com 1.10,2013-02-13 00:00:00,
2013-02-12 19:15:00,39.0,31.0,29.67,SSE,167,0.0,2.0,72,0.00,,,0.01,weatherlink.com 1.10,2013-02-13 00:15:00,
2013-02-12 19:30:00,38.7,31.0,29.66,SSW,192,0.0,2.0,73,0.00,,,0.01,weatherlink.com 1.10,2013-02-13 00:30:00,
2013-02-12 19:45:00,38.4,30.0,29.67,South,181,2.0,2.0,73,0.00,,,0.01,weatherlink.com 1.10,2013-02-13 00:45:00,
2013-02-12 20:00:00,38.0,30.0,29.68,SSW,194,0.0,2.0,73,0.00,,,0.01,weatherlink.com 1.10,2013-02-13 01:00:00,
2013-02-12 20:15:00,37.9,30.0,29.69,SSW,193,0.0,2.0,74,0.00,,,0.01,weatherlink.com 1.10,2013-02-13 01:15:00,
2013-02-12 20:30:00,37.3,30.0,29.69,SSE,166,0.0,2.0,76,0.00,,,0.01,weatherlink.com 1.10,2013-02-13 01:30:00,
2013-02-12 20:45:00,37.1,30.0,29.69,South,177,0.0,1.0,76,0.00,,,0.01,weatherlink.com 1.10,2013-02-13 01:45:00,
2013-02-12 21:00:00,36.7,30.0,29.70,SSE,159,1.0,3.0,77,0.00,,,0.01,weatherlink.com 1.10,2013-02-13 02:00:00,
2013-02-12 21:15:00,36.7,30.0,29.71,SSW,193,0.0,1.0,77,0.00,,,0.01,weatherlink.com 1.10,2013-02-13 02:15:00,
2013-02-12 21:30:00,36.5,30.0,29.72,SSW,194,0.0,1.0,77,0.00,,,0.01,weatherlink.com 1.10,2013-02-13 02:30:00,
2013-02-12 21:45:00,36.1,30.0,29.73,SSE,165,0.0,3.0,79,0.00,,,0.01,weatherlink.com 1.10,2013-02-13 02:45:00,
2013-02-12 22:00:00,36.3,30.0,29.74,SSW,203,0.0,2.0,78,0.00,,,0.01,weatherlink.com 1.10,2013-02-13 03:00:00,
2013-02-12 22:15:00,36.1,31.0,29.75,SE,138,3.0,8.0,80,0.00,,,0.01,weatherlink.com 1.10,2013-02-13 03:15:00,
2013-02-12 22:30:00,36.2,30.0,29.75,SSE,148,3.0,6.0,79,0.00,,,0.01,weatherlink.com 1.10,2013-02-13 03:30:00,
2013-02-12 22:45:00,36.7,30.0,29.74,South,170,1.0,2.0,78,0.00,,,0.01,weatherlink.com 1.10,2013-02-13 03:45:00,
2013-02-12 23:00:00,37.2,30.0,29.75,South,181,0.0,2.0,75,0.00,,,0.01,weatherlink.com 1.10,2013-02-13 04:00:00,
2013-02-12 23:15:00,36.8,30.0,29.73,South,191,0.0,1.0,75,0.00,,,0.01,weatherlink.com 1.10,2013-02-13 04:15:00,
2013-02-12 23:30:00,35.9,29.0,29.73,SSW,192,0.0,0.0,76,0.00,,,0.01,weatherlink.com 1.10,2013-02-13 04:30:00,
2013-02-12 23:45:00,34.9,29.0,29.72,SSW,200,0.0,1.0,78,0.00,,,0.01,weatherlink.com 1.10,2013-02-13 04:45:00,